Weather History for Clinton, OK

Change the Weather History Date:

Friday, August 5, 2011

  Actual Average (KCSM) Record (KCSM)
Temperature  
Mean Temperature 94 °F -  
Max Temperature 109 °F 93 °F 109 °F (2011)
Min Temperature 80 °F 69 °F 66 °F (1998)
Cooling Degree Days 30    
Growing Degree Days 44 (Base 50)    
Moisture  
Dew Point 43 °F    
Average Humidity 20    
Maximum Humidity 32    
Minimum Humidity 7    
Precipitation  
Precipitation 0.00 in - - ()
Sea Level Pressure  
Sea Level Pressure 29.85 in    
Wind  
Wind Speed 7 mph (South)    
Max Wind Speed 15 mph    
Max Gust Speed 24 mph    
Visibility 10 miles    
Events      
Averages and records for this station are not official NWS values.
T = Trace of Precipitation, MM = Missing Value Source: NWS Daily Summary

Daily Weather History Graph

Daily Weather History Graph

Search for Another Location

Airport:

Trip Planner

Search our weather history database for the weather conditions in past years. The results will help you decide how hot, cold, wet, or windy it might be!

Date:

Astronomy

Aug. 05, 2011 Rise Set
Actual Time 6:46 AM CDT 8:36 PM CDT
Civil Twilight 6:19 AM CDT 9:03 PM CDT
Nautical Twilight 5:45 AM CDT 9:37 PM CDT
Astronomical Twilight 5:09 AM CDT 10:12 PM CDT
Moon 1:30 PM CDT (8/5) No Moon Set
Length of Visible Light 14h 44m
Length of Day
13h 49m
Waxing Crescent, 41% of the Moon is Illuminated
Aug 5
Waxing Crescent
Aug 6
First Quarter
Aug 13
Full
Aug 21
Last Quarter
Aug 28
New

Hourly Weather History & Observations

Time (CDT) Temp. Dew Point Humidity Pressure Visibility Wind Dir Wind Speed Gust Speed Precip Events Conditions
12:15 AM 87.8 °F 44.6 °F 22% 29.85 in 10.0 mi SSE 6.9 mph - N/A   Clear
12:35 AM 87.8 °F 44.6 °F 22% 29.85 in 10.0 mi SSE 6.9 mph - N/A   Clear
12:55 AM 86.0 °F 44.6 °F 23% 29.86 in 10.0 mi SSE 6.9 mph - N/A   Clear
1:15 AM 86.0 °F 46.4 °F 25% 29.86 in 10.0 mi SSE 6.9 mph - N/A   Clear
1:55 AM 86.0 °F 44.6 °F 23% 29.85 in 10.0 mi SSE 9.2 mph - N/A   Clear
2:15 AM 84.2 °F 46.4 °F 27% 29.85 in 10.0 mi SSE 8.1 mph - N/A   Clear
2:35 AM 82.4 °F 46.4 °F 28% 29.85 in 10.0 mi SSE 8.1 mph - N/A   Clear
2:55 AM 82.4 °F 46.4 °F 28% 29.85 in 10.0 mi SSE 9.2 mph - N/A   Clear
3:15 AM 82.4 °F 46.4 °F 28% 29.85 in 10.0 mi SSE 8.1 mph - N/A   Clear
3:35 AM 82.4 °F 46.4 °F 28% 29.85 in 10.0 mi SSE 9.2 mph - N/A   Clear
3:55 AM 82.4 °F 46.4 °F 28% 29.85 in 10.0 mi SSE 8.1 mph - N/A   Clear
4:15 AM 82.4 °F 46.4 °F 28% 29.85 in 10.0 mi SSE 8.1 mph - N/A   Clear
4:35 AM 82.4 °F 46.4 °F 28% 29.86 in 10.0 mi South 6.9 mph - N/A   Clear
4:55 AM 80.6 °F 46.4 °F 30% 29.86 in 10.0 mi SSE 6.9 mph - N/A   Clear
5:15 AM 80.6 °F 46.4 °F 30% 29.86 in 10.0 mi SSE 8.1 mph - N/A   Clear
5:35 AM 82.4 °F 46.4 °F 28% 29.86 in 10.0 mi SSE 8.1 mph - N/A   Clear
5:55 AM 80.6 °F 46.4 °F 30% 29.86 in 10.0 mi SSE 6.9 mph - N/A   Clear
6:15 AM 80.6 °F 46.4 °F 30% 29.86 in 10.0 mi SSE 8.1 mph - N/A   Clear
6:35 AM 80.6 °F 46.4 °F 30% 29.87 in 10.0 mi SSE 8.1 mph - N/A   Clear
6:55 AM 80.6 °F 48.2 °F 32% 29.87 in 10.0 mi SSE 9.2 mph - N/A   Clear
7:15 AM 80.6 °F 48.2 °F 32% 29.87 in 10.0 mi SSE 8.1 mph - N/A   Clear
7:35 AM 82.4 °F 48.2 °F 30% 29.88 in 10.0 mi SSE 6.9 mph - N/A   Clear
7:55 AM 82.4 °F 48.2 °F 30% 29.90 in 10.0 mi Calm Calm - N/A   Clear
8:15 AM 82.4 °F 48.2 °F 30% 29.90 in 10.0 mi Calm Calm - N/A   Clear
8:35 AM 84.2 °F 48.2 °F 29% 29.90 in 10.0 mi Calm Calm - N/A   Clear
8:55 AM 86.0 °F 48.2 °F 27% 29.90 in 10.0 mi South 3.5 mph - N/A   Clear
9:15 AM 87.8 °F 48.2 °F 25% 29.90 in 10.0 mi SSE 6.9 mph - N/A   Clear
9:35 AM 87.8 °F 48.2 °F 25% 29.90 in 10.0 mi SSE 4.6 mph - N/A   Clear
9:55 AM 89.6 °F 48.2 °F 24% 29.90 in 10.0 mi SSE 4.6 mph - N/A   Clear
10:15 AM 91.4 °F 48.2 °F 23% 29.89 in 10.0 mi SSW 3.5 mph - N/A   Clear
10:35 AM 93.2 °F 46.4 °F 20% 29.88 in 10.0 mi South 6.9 mph - N/A   Clear
10:55 AM 95.0 °F 46.4 °F 19% 29.88 in 10.0 mi SSW 6.9 mph - N/A   Clear
11:15 AM 96.8 °F 46.4 °F 18% 29.88 in 10.0 mi SSW 4.6 mph - N/A   Clear
11:35 AM 98.6 °F 46.4 °F 17% 29.88 in 10.0 mi South 5.8 mph - N/A   Clear
11:55 AM 98.6 °F 46.4 °F 17% 29.87 in 10.0 mi South 8.1 mph - N/A   Clear
12:15 PM 100.4 °F 44.6 °F 15% 29.87 in 10.0 mi South 3.5 mph - N/A   Clear
12:35 PM 102.2 °F 44.6 °F 14% 29.86 in 10.0 mi SW 5.8 mph - N/A   Clear
12:55 PM 104.0 °F 44.6 °F 13% 29.85 in 10.0 mi South 4.6 mph - N/A   Clear
1:15 PM 105.8 °F 41.0 °F 11% 29.84 in 10.0 mi WSW 11.5 mph 16.1 mph N/A   Clear
1:35 PM 105.8 °F 39.2 °F 10% 29.83 in 10.0 mi South 9.2 mph 24.2 mph N/A   Clear
1:55 PM 105.8 °F 37.4 °F 10% 29.83 in 10.0 mi SW 9.2 mph 18.4 mph N/A   Clear
2:15 PM 105.8 °F 37.4 °F 10% 29.82 in 10.0 mi South 8.1 mph 16.1 mph N/A   Clear
2:35 PM 107.6 °F 35.6 °F 8% 29.82 in 10.0 mi West 10.4 mph - N/A   Clear
2:55 PM 107.6 °F 35.6 °F 8% 29.82 in 10.0 mi Calm Calm - N/A   Clear
3:15 PM 107.6 °F 33.8 °F 8% 29.82 in 10.0 mi West 6.9 mph - N/A   Clear
3:35 PM 109.4 °F 33.8 °F 7% 29.81 in 10.0 mi SSW 15.0 mph - N/A   Clear
3:55 PM 107.6 °F 33.8 °F 8% 29.80 in 10.0 mi SSW 11.5 mph 16.1 mph N/A   Clear
4:15 PM 107.6 °F 35.6 °F 8% 29.80 in 10.0 mi SW 10.4 mph 16.1 mph N/A   Clear
4:35 PM 107.6 °F 33.8 °F 8% 29.79 in 10.0 mi Calm Calm - N/A   Clear
4:55 PM 107.6 °F 33.8 °F 8% 29.79 in 10.0 mi Calm Calm - N/A   Clear
5:15 PM 109.4 °F 33.8 °F 7% 29.78 in 10.0 mi SSW 10.4 mph - N/A   Clear
5:35 PM 109.4 °F 32.0 °F 7% 29.78 in 10.0 mi South 6.9 mph 16.1 mph N/A   Clear
5:55 PM 109.4 °F 32.0 °F 7% 29.77 in 10.0 mi SSW 12.7 mph 17.3 mph N/A   Clear
6:15 PM 105.8 °F 33.8 °F 8% 29.77 in 10.0 mi SSW 12.7 mph - N/A   Clear
6:35 PM 105.8 °F 33.8 °F 8% 29.76 in 10.0 mi South 6.9 mph - N/A   Clear
6:55 PM 105.8 °F 33.8 °F 8% 29.76 in 10.0 mi South 8.1 mph - N/A   Clear
7:15 PM 105.8 °F 33.8 °F 8% 29.76 in 10.0 mi SSW 10.4 mph - N/A   Clear
7:35 PM 105.8 °F 33.8 °F 8% 29.76 in 10.0 mi South 10.4 mph 16.1 mph N/A   Clear
7:55 PM 105.8 °F 35.6 °F 9% 29.76 in 10.0 mi South 9.2 mph - N/A   Clear
8:15 PM 104.0 °F 37.4 °F 10% 29.76 in 10.0 mi South 13.8 mph - N/A   Clear
8:35 PM 102.2 °F 37.4 °F 11% 29.76 in 10.0 mi South 9.2 mph - N/A   Clear
8:55 PM 100.4 °F 39.2 °F 12% 29.77 in 10.0 mi South 8.1 mph - N/A   Clear
9:15 PM 100.4 °F 39.2 °F 12% 29.78 in 10.0 mi Calm Calm - N/A   Clear
9:35 PM 98.6 °F 42.8 °F 15% 29.79 in 10.0 mi Calm Calm - N/A   Clear
9:55 PM 100.4 °F 39.2 °F 12% 29.79 in 10.0 mi WNW 3.5 mph - N/A   Clear
10:35 PM 98.6 °F 41.0 °F 14% 29.80 in 10.0 mi South 6.9 mph - N/A   Clear
10:55 PM 96.8 °F 41.0 °F 15% 29.80 in 10.0 mi South 6.9 mph - N/A   Clear
11:15 PM 95.0 °F 42.8 °F 16% 29.80 in 10.0 mi South 5.8 mph - N/A   Clear
11:35 PM 95.0 °F 42.8 °F 16% 29.81 in 10.0 mi SSE 8.1 mph - N/A   Clear
11:55 PM 93.2 °F 42.8 °F 17% 29.81 in 10.0 mi SSE 6.9 mph - N/A   Clear